Left ArrowRight Arrow

Hourly Observations for June 15, 2024

Temp ( °F °C ) Dew Point ( °F °C ) Humidity (%) Winds ( mph kmh ) Pressure ( in mb ) Visibility ( mi km ) Precip ( " mm )
12:15 am 00:15 Cloudy with Rain 67 19.5 65 18.1 92 92 SSW 5 7 29.90 1013 10 16 0.03 0.76
12:35 am 00:35 Mostly Cloudy with Nearby Thunderstorms 67 19.5 65 18.5 94 94 Calm 29.88 1012 7 11 0.05 1.27
12:55 am 00:55 Mostly Cloudy with Thunderstorms 67 19.2 65 18.5 96 96 E 8 13 29.85 1011 10 16 0.07 1.78
1:15 am 01:15 Mostly Cloudy with Light Rain 66 19 65 18.5 97 97 ENE 10 17 29.82 1010 10 16 0.01 0.25
1:35 am 01:35 Mostly Cloudy with Light Rain 66 19 65 18.5 97 97 ENE 10 17 29.82 1010 10 16 0.02 0.51
1:55 am 01:55 Partly Cloudy 66 19 65 18.4 96 96 E 9 15 29.82 1010 10 16 0.02 0.51
2:15 am 02:15 Clear 66 19 65 18.3 96 96 SE 8 13 29.85 1011 10 16 0.00 0.00
2:35 am 02:35 Clear 66 19 65 18.3 96 96 SE 9 15 29.86 1011 10 16 0.00 0.00
2:55 am 02:55 Clear 66 19 65 18.3 96 96 ESE 8 13 29.86 1011 10 16 0.00 0.00
3:15 am 03:15 Mostly Cloudy with Light Rain 66 18.8 65 18.2 96 96 SE 6 9 29.86 1011 10 16 0.01 0.25
3:35 am 03:35 Mostly Cloudy 66 18.7 65 18.2 97 97 SE 7 11 29.86 1011 10 16 0.01 0.25
3:55 am 03:55 Mostly Cloudy 66 18.7 65 18.2 97 97 ESE 3 6 29.84 1010 10 16 0.01 0.25
4:15 am 04:15 Partly Cloudy 66 18.8 65 18.4 98 98 SE 7 11 29.84 1010 10 16 0.00 0.00
4:35 am 04:35 Mostly Cloudy 66 18.7 65 18.3 98 98 SE 9 15 29.83 1010 10 16 0.00 0.00
4:55 am 04:55 Cloudy 66 19 65 18.5 97 97 SE 10 17 29.83 1010 10 16 0.00 0.00
5:15 am 05:15 Cloudy with Light Rain 66 19 65 18.6 98 98 SE 9 15 29.83 1010 7 11 0.00 0.00
5:35 am 05:35 Cloudy with Light Rain 66 19 65 18.6 98 98 SSE 14 22 29.83 1010 10 16 0.00 0.00
5:55 am 05:55 Cloudy with Nearby Thunderstorms 66 19 65 18.6 98 98 SSE 16 26 29.81 1009 3 5 0.19 4.83
6:15 am 06:15 Mostly Cloudy with Nearby Thunderstorms 66 19 65 18.5 97 97 SSE 14 22 29.80 1009 10 16 0.00 0.00
6:35 am 06:35 Cloudy with Mist and Fog 66 19.1 66 18.7 98 98 SSE 15 24 29.82 1010 2 3 0.00 0.00
6:55 am 06:55 Cloudy with Mist and Fog 67 19.2 66 19 99 99 SSE 9 15 29.80 1009 3 4 0.01 0.25
7:15 am 07:15 Cloudy with Mist and Fog 67 19.3 66 19 98 98 SSE 14 22 29.80 1009 4 6 0.00 0.00
7:35 am 07:35 Cloudy with Mist and Fog 67 19.5 66 19 97 97 SSE 12 19 29.80 1009 5 8 0.00 0.00
7:55 am 07:55 Cloudy with Mist and Fog 67 19.5 66 19.1 98 98 SSE 13 20 29.79 1009 4 6 0.00 0.00
8:15 am 08:15 Cloudy with Mist and Fog 67 19.5 66 19.1 98 98 SSE 14 22 29.79 1009 5 8 0.00 0.00
8:35 am 08:35 Mostly Cloudy with Mist and Fog 68 20 67 19.5 97 97 SSE 13 20 29.78 1008 5 8 0.00 0.00
8:55 am 08:55 Partly Cloudy 70 21.1 68 19.8 92 92 SSE 13 20 29.77 1008 10 16 0.00 0.00
9:15 am 09:15 Sunny 71 21.9 67 19.6 87 87 SSE 14 22 29.76 1008 10 16 0.00 0.00
9:35 am 09:35 Sunny 73 22.5 67 19.4 83 83 S 13 20 29.76 1008 10 16 0.00 0.00
9:55 am 09:55 Partly Cloudy 74 23.1 67 19.6 81 81 S 10 17 29.75 1008 10 16 0.00 0.00
10:15 am 10:15 Partly Cloudy 74 23.6 67 19.7 79 79 S 12 19 29.74 1007 10 16 0.00 0.00
10:35 am 10:35 Partly Cloudy 76 24.5 67 19.6 74 74 S 16 26 29.72 1006 10 16 0.00 0.00
10:55 am 10:55 Partly Cloudy 77 25.2 67 19.3 70 70 S 14 22 29.71 1006 10 16 0.00 0.00
11:15 am 11:15 Partly Cloudy 79 26.1 67 19.2 66 66 S 16 26 29.70 1006 10 16 0.00 0.00
11:35 am 11:35 Mostly Cloudy 77 25.2 65 18.1 65 65 SSW 17 28 29.71 1006 10 16 0.00 0.00
11:55 am 11:55 Mostly Cloudy 80 26.8 65 18.5 60 60 S 16 26 29.69 1006 10 16 0.00 0.00
12:15 pm 12:15 Partly Cloudy 80 26.8 65 18.1 59 59 SSW 17 28 29.68 1005 10 16 0.00 0.00
12:35 pm 12:35 Sunny 81 27.1 65 18.2 58 58 SSW 15 24 29.67 1005 10 16 0.00 0.00
12:55 pm 12:55 Sunny 83 28.5 65 18.5 55 55 SSW 14 22 29.65 1004 10 16 0.00 0.00
1:15 pm 13:15 Sunny 82 28 64 18 55 55 SW 12 19 29.65 1004 10 16 0.00 0.00
1:35 pm 13:35 Sunny 85 29.5 65 18.1 50 50 SSW 16 26 29.62 1003 10 16 0.00 0.00
1:55 pm 13:55 Sunny 84 28.7 66 19 56 56 S 17 28 29.63 1003 10 16 0.00 0.00
2:15 pm 14:15 Sunny 84 28.7 65 18.4 54 54 S 14 22 29.63 1003 10 16 0.00 0.00
2:35 pm 14:35 Sunny 87 30.4 65 18.6 49 49 S 16 26 29.61 1003 10 16 0.00 0.00
2:55 pm 14:55 Sunny 87 30.8 66 18.7 49 49 S 22 35 29.60 1002 10 16 0.00 0.00
3:15 pm 15:15 Sunny 87 30.8 65 18.2 47 47 S 20 31 29.59 1002 10 16 0.00 0.00
3:35 pm 15:35 Partly Cloudy 87 30.7 65 18.2 47 47 S 21 33 29.59 1002 10 16 0.00 0.00
3:55 pm 15:55 Partly Cloudy 89 31.5 65 18.2 45 45 SSW 17 28 29.58 1002 10 16 0.00 0.00
4:15 pm 16:15 Partly Cloudy 89 31.7 64 18 44 44 S 18 30 29.57 1001 10 16 0.00 0.00
4:35 pm 16:35 Partly Cloudy 89 31.7 64 17.6 43 43 SSW 20 31 29.57 1001 10 16 0.00 0.00
4:55 pm 16:55 Sunny 89 31.6 62 16.8 41 41 SSW 21 33 29.55 1001 10 16 0.00 0.00
5:15 pm 17:15 Sunny 89 31.6 63 17.4 43 43 SSW 15 24 29.55 1001 10 16 0.00 0.00
5:35 pm 17:35 Sunny 89 31.7 63 17.2 42 42 SSW 14 22 29.55 1001 10 16 0.00 0.00
5:55 pm 17:55 Sunny 89 31.7 63 17.4 43 43 SW 15 24 29.54 1000 10 16 0.00 0.00
6:15 pm 18:15 Sunny 89 31.7 63 17.4 43 43 SSW 12 19 29.53 1000 10 16 0.00 0.00
6:35 pm 18:35 Sunny 89 31.7 64 17.5 43 43 S 13 20 29.52 1000 10 16 0.00 0.00
6:55 pm 18:55 Sunny 89 31.7 64 17.5 43 43 SSW 9 15 29.52 1000 10 16 0.00 0.00
7:15 pm 19:15 Sunny 89 31.5 65 18.4 46 46 S 9 15 29.52 1000 10 16 0.00 0.00
7:35 pm 19:35 Sunny 88 31 65 18.4 47 47 S 7 11 29.51 999 10 16 0.00 0.00
7:55 pm 19:55 Sunny 87 30.3 67 19.5 53 53 S 6 9 29.52 1000 10 16 0.00 0.00
8:15 pm 20:15 Sunny 85 29.4 68 19.9 57 57 S 7 11 29.51 999 10 16 0.00 0.00
8:35 pm 20:35 Sunny 83 28.2 68 20 61 61 S 8 13 29.52 1000 10 16 0.00 0.00
8:55 pm 20:55 Sunny 81 27.1 67 19.7 64 64 S 8 13 29.53 1000 10 16 0.00 0.00
9:15 pm 21:15 Clear 78 25.8 68 19.8 70 70 S 8 13 29.54 1000 10 16 0.00 0.00
9:35 pm 21:35 Clear 77 25 68 19.8 73 73 SSE 7 11 29.57 1001 10 16 0.00 0.00
9:55 pm 21:55 Clear 76 24.5 67 19.5 74 74 SSE 9 15 29.57 1001 10 16 0.00 0.00
10:15 pm 22:15 Clear 76 24.5 66 19 71 71 SSE 10 17 29.58 1002 10 16 0.00 0.00
10:35 pm 22:35 Clear 75 23.8 66 19 75 75 SSE 9 15 29.60 1002 10 16 0.00 0.00
10:55 pm 22:55 Clear 75 23.7 66 19 75 75 SSE 10 17 29.60 1002 10 16 0.00 0.00
11:15 pm 23:15 Clear 75 23.7 66 19 75 75 SSE 10 17 29.61 1003 10 16 0.00 0.00
11:35 pm 23:35 Clear 75 23.7 66 18.9 75 75 SSE 10 17 29.61 1003 10 16 0.00 0.00
11:55 pm 23:55 Clear 74 23.1 66 19 78 78 SSE 8 13 29.61 1003 10 16 0.00 0.00

Powered by Vaisala Xweather